Regional Weather Roundup
Issued by NWS

Home | Current Version | Previous Version | Text Only | Print | Product List | Glossary Off
Versions: 1 2 3 4 5 6 7 8 9 10 11 12 13 14 15 16 17 18 19 20 21 22 23 24 25 26 27 28 29 30 31 32 33 34 35 36 37 38 39 40 41 42 43 44 45 46 47 48 49 50

000
ASUS43 KMKX 241810
RWRWI

WISCONSIN REGIONAL WEATHER ROUNDUP
NATIONAL WEATHER SERVICE MILWAUKEE/SULLIVAN WI
1200 PM CST TUE JAN 24 2017

NOTE: "FAIR" INDICATES FEW OR NO CLOUDS BELOW 12,000 FEET WITH NO
SIGNIFICANT WEATHER AND/OR OBSTRUCTIONS TO VISIBILITY.

WIZ001-002-006>008-014>016-023>028-241900-
NORTHWEST WISCONSIN

CITY           SKY/WX    TMP DP  RH WIND       PRES   REMARKS
SUPERIOR ARPT  CLOUDY    34  26  75 NW5       29.87F WCI  29
6HR MIN TEMP:  32; 6HR MAX TEMP:  34;

ASHLAND        CLOUDY    33  27  78 NW7       29.87F WCI  27
6HR MIN TEMP:  32; 6HR MAX TEMP:  34;

HAYWARD        CLOUDY    33  27  78 CALM      29.84F
6HR MIN TEMP:  32; 6HR MAX TEMP:  34; 6HR PCP: TRACE;

SIREN          CLOUDY    32  27  81 NE5       29.85F WCI  27
6HR MIN TEMP:  31; 6HR MAX TEMP:  32;

CUMBERLAND     CLOUDY    32  27  80 CALM      29.83F
RICE LAKE      CLOUDY    33  29  85 NW3       29.86F
6HR MIN TEMP:  32; 6HR MAX TEMP:  33;

CHETEK         CLOUDY    33  29  86 CALM      29.84F
6HR MIN TEMP:  32; 6HR MAX TEMP:  33;

LADYSMITH      CLOUDY    34  30  85 CALM      29.86S
6HR MIN TEMP:  32; 6HR MAX TEMP:  34;

EAU CLAIRE     CLOUDY    33  30  88 S3        29.85F
6HR MIN TEMP:  31; 6HR MAX TEMP:  33;

MENOMONIE        N/A    N/A N/A N/A MISG        N/A
NEW RICHMOND   CLOUDY    32  28  84 E5        29.85F WCI  27
6HR MIN TEMP:  30; 6HR MAX TEMP:  32;

OSCEOLA        CLOUDY    32  27  82 NE3       29.88F
6HR MIN TEMP:  32; 6HR MAX TEMP:  32;

$$

WIZ003>005-009-010-017-018-241900-
NORTH CENTRAL WISCONSIN

CITY           SKY/WX    TMP DP  RH WIND       PRES   REMARKS
MANITOWISH WTR CLOUDY    33  32  96 CALM      29.81F
6HR MIN TEMP:  32; 6HR MAX TEMP:  33;

ARBOR VITAE    CLOUDY    37  33  86 NW3       29.81F
6HR MIN TEMP:  34; 6HR MAX TEMP:  37;

WOODRUFF       CLOUDY    37  33  86 NW3       29.81F
6HR MIN TEMP:  34; 6HR MAX TEMP:  37;

RHINELANDER    CLOUDY    36  31  82 NW3       29.81F
6HR MIN TEMP:  34; 6HR MAX TEMP:  36;

EAGLE RIVER    CLOUDY    34  32  94 NW6       29.80F WCI  29
6HR MIN TEMP:  32; 6HR MAX TEMP:  34;

LAND O LAKES   CLOUDY    34  32  93 N6        29.81F WCI  29
6HR MIN TEMP:  33; 6HR MAX TEMP:  34;

PHILLIPS       CLOUDY    33  29  88 N5        29.82F WCI  28
6HR MIN TEMP:  31; 6HR MAX TEMP:  33;

TOMAHAWK       CLOUDY    34  29  84 NW3       29.82F
6HR MIN TEMP:  32; 6HR MAX TEMP:  34;

MEDFORD        CLOUDY    32  29  88 CALM      29.81F
6HR MIN TEMP:  31; 6HR MAX TEMP:  32;

MERRILL        CLOUDY    35  30  81 N8          N/A  WCI  29
6HR MIN TEMP:  33; 6HR MAX TEMP:  35;

$$

WIZ029-030-035-036-043>047-241900-
CENTRAL WISCONSIN

CITY           SKY/WX    TMP DP  RH WIND       PRES   REMARKS
WAUSAU         CLOUDY    35  29  78 N8        29.81F WCI  29
6HR MIN TEMP:  33; 6HR MAX TEMP:  35;

MOSINEE        NOT AVBL
MARSHFIELD     CLOUDY    35  28  75 NE5       29.81F WCI  31
6HR MIN TEMP:  32; 6HR MAX TEMP:  35;

STEVENS POINT  CLOUDY    34  30  85 E3        29.83F
6HR MIN TEMP:  32; 6HR MAX TEMP:  34;

WAUPACA        CLOUDY    39  32  76 CALM      29.84F
6HR MIN TEMP:  36; 6HR MAX TEMP:  39;

WAUTOMA        CLOUDY    37  32  82 NW3       29.86S
6HR MIN TEMP:  33; 6HR MAX TEMP:  37;

WISC RAPIDS    CLOUDY    36  30  79 CALM      29.85F
6HR MIN TEMP:  33; 6HR MAX TEMP:  37; 6HR PCP: TRACE;

CAMP DOUGLAS   CLOUDY    36  30  80 CALM      29.84F
$$

WIZ011>013-019>022-031-037>040-048>050-241900-
NORTHEAST WISCONSIN

CITY           SKY/WX    TMP DP  RH WIND       PRES   REMARKS
ANTIGO         CLOUDY    34  31  90 N5        29.81F WCI  30
6HR MIN TEMP:  32; 6HR MAX TEMP:  34;

SHAWANO        CLOUDY    41  34  76 NW3       29.83F
6HR MIN TEMP:  36; 6HR MAX TEMP:  41;

OCONTO         CLOUDY    37  34  87 NW5       29.82F WCI  34
6HR MIN TEMP:  32; 6HR MAX TEMP:  37;

STURGEON BAY   CLOUDY    37  37 100 NW8       29.82F WCI  31
6HR MIN TEMP:  33; 6HR MAX TEMP:  37;

GREEN BAY      PTSUNNY   43  36  76 NW8       29.82F
6HR MIN TEMP:  36; 6HR MAX TEMP:  43; 6HR PCP: TRACE;

MANITOWOC      CLOUDY    40  35  83 N12       29.82F WCI  33
6HR MIN TEMP:  35; 6HR MAX TEMP:  40;

APPLETON       CLOUDY    37  36  93 NW8       29.81F WCI  31
CLINTONVILLE   CLOUDY    37  32  81 CALM      29.83F
OSHKOSH        CLOUDY    38  33  82 NW6       29.83F WCI  33
6HR MIN TEMP:  34; 6HR MAX TEMP:  38;

$$

WIZ032>034-041-042-053>061-241900-
SOUTHWEST WISCONSIN

CITY           SKY/WX    TMP DP  RH WIND       PRES   REMARKS
LA CROSSE      CLOUDY    37  30  75 N3        29.86F
6HR MIN TEMP:  34; 6HR MAX TEMP:  37;

SPARTA         CLOUDY    33  32  96 CALM      29.87F
6HR MIN TEMP:  31; 6HR MAX TEMP:  33;

VIROQUA        CLOUDY    34  32  92 E3        29.83F
6HR MIN TEMP:  32; 6HR MAX TEMP:  34;

BOSCOBEL       CLOUDY    37  31  78 CALM      29.86F
6HR MIN TEMP:  34; 6HR MAX TEMP:  37;

PRAIRIE DU CHI CLOUDY    35  30  82 E6        29.85F WCI  30
6HR MIN TEMP:  33; 6HR MAX TEMP:  35;

PLATTEVILLE    CLOUDY    34  33  95 CALM      29.85F
6HR MIN TEMP:  32; 6HR MAX TEMP:  35;

$$

WIZ056-057-062-063-064-067-068-241900-
SOUTH CENTRAL WISCONSIN

CITY           SKY/WX    TMP DP  RH WIND       PRES   REMARKS
REEDSBURG      CLOUDY    35  32  87 CALM      29.85F
6HR MIN TEMP:  32; 6HR MAX TEMP:  35;

BARABOO/DELLS  CLOUDY    35  30  82 CALM      29.84F
6HR MIN TEMP:  33; 6HR MAX TEMP:  35;

LONE ROCK      CLOUDY    37  30  75 SE3       29.87F
6HR MIN TEMP:  33; 6HR MAX TEMP:  37;

MINERAL POINT  CLOUDY    36  34  93 SE3       29.83F
MADISON        CLOUDY    37  31  78 N6        29.86F WCI  32
6HR MIN TEMP:  34; 6HR MAX TEMP:  37;

MIDDLETON      CLOUDY    37  32  82 CALM      29.86F
6HR MIN TEMP:  35; 6HR MAX TEMP:  37;

WATERTOWN      CLOUDY    36  33  91 NW3       29.85F
6HR MIN TEMP:  33; 6HR MAX TEMP:  36;

MONROE         CLOUDY    34  32  93 NE3       29.85F
JANESVILLE     CLOUDY    36  34  93 CALM      29.87F
$$

WIZ051-052-058>065-066-070>072-241900-
SOUTHEAST WISCONSIN

CITY           SKY/WX    TMP DP  RH WIND       PRES   REMARKS
MILWAUKEE      CLOUDY    38  32  79 NW8       29.85F WCI  32
6HR MIN TEMP:  37; 6HR MAX TEMP:  38;

WAUKESHA       CLOUDY    34  32  93 NW6       29.85F WCI  29
MILWAUKEE/TIMM CLOUDY    36  32  87 NW8       29.86F WCI  29
RACINE         CLOUDY    38  32  79 NW6       29.87F WCI  33
6HR MIN TEMP:  36; 6HR MAX TEMP:  38;

KENOSHA        CLOUDY    36  32  85 W6        29.86F WCI  31
6HR MIN TEMP:  35; 6HR MAX TEMP:  37;

FOND DU LAC    CLOUDY    39  32  76 NW5       29.84F
6HR MIN TEMP:  35; 6HR MAX TEMP:  39; 6HR PCP: TRACE;

SHEBOYGAN      CLOUDY    39  34  82 W6        29.83F WCI  35
6HR MIN TEMP:  35; 6HR MAX TEMP:  39;

WEST BEND      CLOUDY    36  34  93 NW6       29.83F WCI  31
JUNEAU         CLOUDY    36  32  87 N6        29.85F WCI  31
6HR MIN TEMP:  33; 6HR MAX TEMP:  36;

$$

LSZ147-162-241900-
LAKE SUPERIOR

STATION/POSITION TIME  TEMP    WIND        PRES    WAVE
                       AIR SEA DIR/SP/G            HT/PER
                 (UTC) (F)     (DEG/KT/KT) (MB)    (FT/S)
DEVILS ISLAND    1700   33     220/  6/  7 1012.3S
PORT WING        1740   34     260/  7/  9 1012.2S
SAXON HARBOR     1740   35      60/  2/  3 1011.5F
$$

LMZ867-665-643>646-241900-
LAKE MICHIGAN

STATION/POSITION TIME  TEMP    WIND        PRES    WAVE
                       AIR SEA DIR/SP/G            HT/PER
                 (UTC) (F)     (DEG/KT/KT) (MB)    (FT/S)
NORTHPORT PIER   1740   35     300/  8/ 11 1009.8F
SISTER BAY       1735   35        CALM       N/A
KEWAUNEE LAKESHO 1748   39     350/  7/ 10 1009.4F
SHEBOYGAN LAKESH 1800   38     3



USA.gov is the U.S. government's official web portal to all federal, state and local government web resources and services.